Home   Weather   Ruda Śląska   Past weeks

Flag for Poland Past Weather in Ruda Śląska, Poland — Yesterday and Last 2 Weeks

Now
39 °F

Mostly cloudy.


Feels Like: 32 °F
Forecast: 38 / 47 °F
Wind: 12 mph from Southwest

Location: Katowice Airport

Current Time: Dec 9, 2016 at 4:39:54 pm

Latest Report: Dec 9, 2016 at 4:00 pm


Visibility: 4 mi

Pressure: 30.18 "Hg

Humidity: 87%

Dew Point: 36 °F

Location of Ruda ŚląskaLocation

Past Weather in Ruda Śląska — Graph

°F

Ruda Śląska Temperature Yesterday

Maximum temperature yesterday: 39 °F (at 11:30 am)
Minimum temperature yesterday: 32 °F (at 2:30 am)
Average temperature yesterday: 36 °F

High & Low Weather Summary for the Past Weeks

 TemperatureHumidityPressure
High50 °F (Nov 24, 3:00 pm)100% (Nov 24, 9:00 pm)30.63 "Hg (Nov 24, 9:00 pm)
Low18 °F (Dec 5, 1:30 am)41% (Dec 5, 2:00 pm)29.45 "Hg (Dec 2, 3:30 am)
Average32 °F87%30.16 "Hg
* Reported Nov 24 3:00 pm — Dec 9 3:30 pm, Ruda Śląska, Weather by CustomWeather, © 2016

Note: Actual official high and low records may vary slightly from our data, if they occured in-between our weather recording intervals... More about our weather records

Advertising

Ruda Śląska Weather History for the Previous 24 Hours

Scroll right to see more
 ConditionsComfort  
Time TempWeatherWind HumidityBarometerVisibility
3:30 pm
Fri, Dec 9
39 °FOvercast.12 mph81%30.18 "Hg4 mi
3:00 pm37 °FOvercast.13 mph87%30.18 "Hg4 mi
2:30 pm37 °FLight rain. Fog.9 mph87%30.18 "Hg2 mi
2:00 pm37 °FFog.14 mph87%30.18 "Hg2 mi
1:30 pm37 °FBroken clouds.13 mph81%30.18 "Hg4 mi
1:00 pm37 °FMore clouds than sun.13 mph75%30.18 "Hg4 mi
12:30 pm37 °FMore clouds than sun.12 mph75%30.18 "Hg4 mi
12:00 pm36 °FLight rain. Fog.13 mph81%30.18 "Hg3 mi
11:30 am37 °FPartly sunny.13 mph70%30.21 "Hg4 mi
11:00 am36 °FPartly sunny.14 mph81%30.21 "Hg4 mi
10:30 am36 °FBroken clouds.10 mph75%30.21 "Hg4 mi
10:00 am36 °FPartly sunny.8 mph75%30.21 "Hg4 mi
9:30 am36 °FPartly sunny.7 mph75%30.18 "Hg4 mi
9:00 am34 °FPartly sunny.10 mph81%30.18 "Hg4 mi
8:30 am32 °FClear.9 mph87%30.18 "Hg4 mi
8:00 am32 °FClear.13 mph80%30.18 "Hg4 mi
7:30 am32 °FClear.10 mph87%30.18 "Hg4 mi
7:00 am32 °FClear.10 mph87%30.18 "Hg4 mi
6:30 am32 °FClear.8 mph87%30.18 "Hg4 mi
5:30 am34 °FClear.9 mph87%30.21 "Hg4 mi
5:00 am34 °FFog.10 mph87%30.21 "Hg3 mi
4:30 am34 °FClear.9 mph87%30.21 "Hg4 mi
4:00 am36 °FLight rain. Passing clouds.12 mph81%30.21 "Hg4 mi
3:30 am36 °FLight rain. Fog.10 mph81%30.21 "Hg3 mi
3:00 am36 °FClear.10 mph70%30.21 "Hg6 mi
2:30 am36 °FPassing clouds.8 mph70%30.21 "Hg6 mi
2:00 am36 °FMostly cloudy.9 mph70%30.21 "Hg5 mi
1:30 am37 °FOvercast.10 mph70%30.21 "Hg5 mi
1:00 am37 °FOvercast.13 mph65%30.21 "Hg5 mi
12:30 am37 °FOvercast.14 mph65%30.21 "Hg4 mi
12:00 am37 °FOvercast.14 mph65%30.21 "Hg4 mi
11:30 pm
Thu, Dec 8
36 °FOvercast.14 mph70%30.24 "Hg4 mi
11:00 pm37 °FOvercast.12 mph65%30.24 "Hg4 mi
10:30 pm37 °FOvercast.14 mph65%30.24 "Hg4 mi
10:00 pm37 °FOvercast.14 mph65%30.24 "Hg4 mi
9:30 pm36 °FPassing clouds.15 mph70%30.24 "Hg4 mi
9:00 pm36 °FClear.14 mph70%30.24 "Hg4 mi
8:30 pm36 °FClear.13 mph70%30.24 "Hg4 mi
8:00 pm36 °FClear.14 mph70%30.24 "Hg4 mi
7:30 pm36 °FClear.12 mph70%30.27 "Hg4 mi
7:00 pm36 °FClear.15 mph70%30.27 "Hg4 mi
6:30 pm36 °FClear.16 mph70%30.27 "Hg4 mi
6:00 pm36 °FClear.15 mph70%30.27 "Hg4 mi
5:30 pm36 °FClear.14 mph70%30.27 "Hg4 mi
5:00 pm36 °FClear.16 mph75%30.27 "Hg4 mi
4:30 pm36 °FClear.14 mph75%30.27 "Hg4 mi
4:00 pm36 °FClear.13 mph75%30.27 "Hg4 mi
Weather by CustomWeather, © 2016

See weather overviewHow to use our weather pages